Погода в Зубовой Поляне

Россия / Республика Мордовия     54°04′36″N   42°49′47″E
темп.,
°C
ветер,
м/с
пор.,
м/с
влажн.,
%
обл.,
%
осадки,
мм/ч
давл.,
гПа
погр.,
м
14 мая, пт
пт1400:00+12ююз119390 0.0 101810
03:00+12юв119398 0.0 101911
06:00+14юв2391100 0.0 101986
09:00+19юв237215 0.0 1019518
12:00+23юв34547 0.0 10181305
15:00+24ююв4551100 0.0 10171356
18:00+23юв3768100 0.0 1016362
21:00+19юв3118177 0.1 1015243
15 мая, сб
сб1500:00+17юв31091100 0.0 1014201
03:00+16юв3118764 0.0 1013217
06:00+17ююв41277100 0.0 1014358
09:00+20ю61161100 0.0 1014530
12:00+23ю71156100 0.0 1014934
15:00+24ю57615 0.3 10141160
18:00+19ююв398246 0.3 1014243
21:00+17ю23845 0.3 101438
16 мая, вс
вс1600:00+15юз229311 0.0 101443
03:00+14юз2294100 0.0 101523
06:00+15юз2385100 0.0 1015105
09:00+20юз246396 0.0 1015528
12:00+24юз3546100 0.0 10161717
15:00+25юз354315 0.0 10152021
18:00+23зюз236196 0.0 1014123
21:00+16юз118469 0.5 101511
17 мая, пн
пн1700:00+15с1187100 0.6 101611
03:00+15в239295 0.6 101654
06:00+16в249025 0.0 1016132
09:00+22вюв34625 0.0 1016505
12:00+27ююв46465 0.0 1015969
15:00+27ююв57385 0.0 10151451
18:00+24ююв37595 0.0 1015292
21:00+18юв377487 0.0 1015112
18 мая, вт
вт1800:00+17юв31070100 0.0 1015174
03:00+16юв31261100 0.0 1014203
06:00+17юв41360100 0.0 1014268
09:00+23ююв594677 0.0 1014438
12:00+26ююв584041 0.0 1013890
15:00+27ююв593859 0.0 10131616
18:00+24юв495656 0.0 1012476
21:00+19юв3117286 0.0 1012197